User: anonymous   Login
Location: Unspecified
(0.0000°N, 0.0000°E)
Time: 17:24:27
(UTC+00:00)
Language:

Gurwin Techsat 1B - Orbit

View from above orbital plane
View from above orbital plane
View from above satellite
View from above satellite

Ground track
Ground track

The orbit data is extracted from the following two-line orbital elements,

1 25397U 98043D   18115.88228567 -.00000020  00000-0  10226-4 0  9990
2 25397  98.6461  57.1974 0001788 132.6936 227.4393 14.23644128 28284
Epoch (UTC): 25 April 2018 21:10:29
Eccentricity: 0.0001788
inclination: 98.6461°
perigee height: 812 km
apogee height: 814 km
right ascension of ascending node: 57.1974°
argument of perigee: 132.6936°
revolutions per day: 14.23644128
mean anomaly at epoch: 227.4393°
orbit number at epoch: 2828

The dashed part of the orbit path shows where the satellite is in the earth's shadow,  

DLR